sat.trackr.live / text

‹ back to catalog

STARLINK-36359

NORAD 67979 · 2026-038U

PAYLOAD ACTIVE UNKNOWN

§ Identity

Operator
Country
US
Launch date
2026-02-25
Launch site
AFWTR
Launch vehicle
Mass (kg)
RCS (m²)

Purposes: comms

External: N2YO · Heavens-Above · Gunter

§ Orbital elements

Epoch: 2026-09-19T23:13:09.741504Z

Period
93.91 min
Inclination
97.2855°
Eccentricity
0.0001661
Mean motion
15.33455021 rev/d
Perigee alt
464.4 km
Apogee alt
466.7 km
Semi-major
6,843.7 km
B*
3.1615e-4
RAAN
271.3443°
Arg perigee
89.4166°
Mean anomaly
270.7267°
Rev number
3,301

§ Raw data

STARLINK-363591 67979U 26038U   26262.96747386  .00010149  00000+0  31615-3 0  99982 67979  97.2855 271.3443 0001661  89.4166 270.7267 15.33455021 33015

JSON: /api/v1/satellites/67979 · /tle

For live sub-satellite position, see the globe view (requires WebGL).

§ Visibility from observer

Set your observer location to see the next 7 days of passes ≥ 10°. The values pass through the URL so the page stays shareable.

No JS? Fill the form by hand. The geolocation button needs JavaScript.